Location: Whitehorse
(60.7170°N, 135.0500°W)
Time: 00:33:19
(UTC-08:00)

SL-16 R/B - Visible Passes

Search period start: 04 March 2015 00:00
Search period end: 14 March 2015 01:00
Orbit: 842 x 848 km, 71.0° (Epoch: 02 March)

Date Brightness Start Highest point End Pass type
(mag) Time Alt. Az. Time Alt. Az. Time Alt. Az.
04 Mar 3.5 01:00:04 10° NW 01:03:27 36° NNW 01:03:27 36° NNW visible
04 Mar 4.4 02:44:24 10° NW 02:45:19 15° NW 02:45:19 15° NW visible
04 Mar 2.9 19:30:09 10° WSW 19:35:43 55° NW 19:41:19 10° NE visible
04 Mar 3.7 21:15:55 10° WNW 21:20:58 31° NNW 21:25:59 10° NE visible
04 Mar 3.5 23:01:29 10° NW 23:06:35 33° NNE 23:07:52 29° NE visible
05 Mar 3.4 00:46:05 10° NW 00:49:45 39° NNW 00:49:45 39° NNW visible
05 Mar 4.3 02:30:25 10° NW 02:31:38 17° NW 02:31:38 17° NW visible
05 Mar 2.9 19:16:08 10° WSW 19:21:42 55° NW 19:27:19 10° NE visible
05 Mar 3.7 21:01:54 10° WNW 21:06:57 31° NNW 21:12:00 10° NE visible
05 Mar 3.6 22:47:28 10° NW 22:52:33 32° NNE 22:54:11 28° NE visible
06 Mar 3.2 00:32:04 10° NW 00:36:04 43° NNW 00:36:04 43° NNW visible
06 Mar 4.2 02:16:25 10° NW 02:17:56 18° NW 02:17:56 18° NW visible
06 Mar 3.7 20:47:52 10° WNW 20:52:56 32° NNW 20:58:00 10° NE visible
06 Mar 3.6 22:33:27 10° NW 22:38:32 32° NNE 22:40:29 26° NE visible
07 Mar 3.1 00:18:04 10° NW 00:22:22 47° N 00:22:22 47° N visible
07 Mar 4.1 02:02:24 10° NW 02:04:15 21° NW 02:04:15 21° NW visible
07 Mar 3.7 20:33:51 10° WNW 20:38:54 32° NNW 20:43:59 10° NE visible
07 Mar 3.6 22:19:26 10° NW 22:24:31 32° NNE 22:26:47 24° NE visible
08 Mar 2.9 00:04:04 10° NW 00:08:40 50° N 00:08:40 50° N visible
08 Mar 4.0 01:48:24 10° NW 01:50:33 23° NW 01:50:33 23° NW visible
08 Mar 3.7 21:19:48 10° WNW 21:24:53 32° NNW 21:29:58 10° NE visible
08 Mar 3.6 23:05:25 10° NW 23:10:30 32° NNE 23:13:06 22° ENE visible
09 Mar 2.8 00:50:04 10° NW 00:54:59 53° N 00:54:59 53° N visible
09 Mar 3.8 02:34:23 10° NW 02:36:52 26° NW 02:36:52 26° NW visible
09 Mar 3.7 21:05:47 10° WNW 21:10:51 32° NNW 21:15:57 10° NE visible
09 Mar 3.6 22:51:25 10° NW 22:56:28 32° NNE 22:59:24 20° ENE visible
10 Mar 2.7 00:36:04 10° NW 00:41:17 55° NNE 00:41:17 55° NNE visible
10 Mar 3.7 02:20:23 10° NW 02:23:10 28° WNW 02:23:10 28° WNW visible
10 Mar 3.6 20:51:45 10° WNW 20:56:50 32° NNW 21:01:56 10° NE visible
10 Mar 3.6 22:37:23 10° NW 22:42:27 32° NNE 22:45:43 19° ENE visible
11 Mar 2.6 00:22:04 10° NW 00:27:36 56° NE 00:27:36 56° NE visible
11 Mar 3.5 02:06:22 10° NW 02:09:29 31° WNW 02:09:29 31° WNW visible
11 Mar 3.6 20:37:42 10° WNW 20:42:49 32° NNW 20:47:55 10° NE visible
11 Mar 3.6 22:23:22 10° NW 22:28:26 31° NNE 22:32:02 17° ENE visible
12 Mar 2.5 00:08:03 10° NW 00:13:40 55° NE 00:13:56 55° NE visible
12 Mar 3.4 01:52:22 10° NW 01:55:48 35° WNW 01:55:48 35° WNW visible
12 Mar 3.5 22:09:21 10° NW 22:14:24 31° N 22:18:23 15° ENE visible
12 Mar 2.5 23:54:03 10° NW 23:59:39 54° NE 00:00:15 52° ENE visible
13 Mar 3.2 01:38:22 10° NW 01:42:08 39° WNW 01:42:08 39° WNW visible
13 Mar 4.6 03:23:48 10° WNW 03:24:01 11° WNW 03:24:01 11° WNW visible
13 Mar 3.5 21:55:20 10° NW 22:00:22 31° N 22:04:42 13° ENE visible
13 Mar 2.6 23:40:03 10° NW 23:45:38 54° NE 23:46:35 48° ENE visible
